Year,Month,Day,Hour,Minute,Value (Times are PST for windgust in km/hr)
2007,11,13,00,00,19.30
2007,11,13,00,01,19.30
2007,11,13,00,02,16.10
2007,11,13,00,03,12.90
2007,11,13,00,04,11.30
2007,11,13,00,05,9.60
2007,11,13,00,06,11.30
2007,11,13,00,07,9.60
2007,11,13,00,08,11.30
2007,11,13,00,09,6.40
2007,11,13,00,10,1.60
2007,11,13,00,11,3.20
2007,11,13,00,12,4.80
2007,11,13,00,13,6.40
2007,11,13,00,14,11.30
2007,11,13,00,15,8.10
2007,11,13,00,16,6.40
2007,11,13,00,17,6.40
2007,11,13,00,18,3.20
2007,11,13,00,19,8.10
2007,11,13,00,20,9.60
2007,11,13,00,21,4.80
2007,11,13,00,22,4.80
2007,11,13,00,23,8.10
2007,11,13,00,24,6.40
2007,11,13,00,25,6.40
2007,11,13,00,26,3.20
2007,11,13,00,27,3.20
2007,11,13,00,28,3.20
2007,11,13,00,29,3.20
2007,11,13,00,30,1.60
2007,11,13,00,31,1.60
2007,11,13,00,32,6.40
2007,11,13,00,33,8.10
2007,11,13,00,34,6.40
2007,11,13,00,35,4.80
2007,11,13,00,36,3.20
2007,11,13,00,37,6.40
2007,11,13,00,38,3.20
2007,11,13,00,39,8.10
2007,11,13,00,40,8.10
2007,11,13,00,41,4.80
2007,11,13,00,42,6.40
2007,11,13,00,43,6.40
2007,11,13,00,44,6.40
2007,11,13,00,45,6.40
2007,11,13,00,46,3.20
2007,11,13,00,47,3.20
2007,11,13,00,48,6.40
2007,11,13,00,49,11.30
2007,11,13,00,50,8.10
2007,11,13,00,51,6.40
2007,11,13,00,52,9.60
2007,11,13,00,53,8.10
2007,11,13,00,54,8.10
2007,11,13,00,55,14.50
2007,11,13,00,56,11.30
2007,11,13,00,57,8.10
2007,11,13,00,58,6.40
2007,11,13,00,59,1.60
2007,11,13,01,00,11.30
2007,11,13,01,01,8.10
2007,11,13,01,02,29.00
2007,11,13,01,03,11.30
2007,11,13,01,04,16.10
2007,11,13,01,05,8.10
2007,11,13,01,06,11.30
2007,11,13,01,07,8.10
2007,11,13,01,08,1.60
2007,11,13,01,09,6.40
2007,11,13,01,10,12.90
2007,11,13,01,11,8.10
2007,11,13,01,12,3.20
2007,11,13,01,13,6.40
2007,11,13,01,14,8.10
2007,11,13,01,15,8.10
2007,11,13,01,16,8.10
2007,11,13,01,17,6.40
2007,11,13,01,18,3.20
2007,11,13,01,19,9.60
2007,11,13,01,20,11.30
2007,11,13,01,21,9.60
2007,11,13,01,22,8.10
2007,11,13,01,23,3.20
2007,11,13,01,24,3.20
2007,11,13,01,25,1.60
2007,11,13,01,26,3.20
2007,11,13,01,27,12.90
2007,11,13,01,28,8.10
2007,11,13,01,29,8.10
2007,11,13,01,30,4.80
2007,11,13,01,31,6.40
2007,11,13,01,32,3.20
2007,11,13,01,33,4.80
2007,11,13,01,34,3.20
2007,11,13,01,35,6.40
2007,11,13,01,36,4.80
2007,11,13,01,37,6.40
2007,11,13,01,38,6.40
2007,11,13,01,39,3.20
2007,11,13,01,40,0.00
2007,11,13,01,41,1.60
2007,11,13,01,42,8.10
2007,11,13,01,43,8.10
2007,11,13,01,44,6.40
2007,11,13,01,45,3.20
2007,11,13,01,46,6.40
2007,11,13,01,47,3.20
2007,11,13,01,48,8.10
2007,11,13,01,49,3.20
2007,11,13,01,50,3.20
2007,11,13,01,51,3.20
2007,11,13,01,52,6.40
2007,11,13,01,53,6.40
2007,11,13,01,54,8.10
2007,11,13,01,55,3.20
2007,11,13,01,56,6.40
2007,11,13,01,57,6.40
2007,11,13,01,58,3.20
2007,11,13,01,59,0.00
2007,11,13,02,00,0.00
2007,11,13,02,01,0.00
2007,11,13,02,02,6.40
2007,11,13,02,03,6.40
2007,11,13,02,04,1.60
2007,11,13,02,05,6.40
2007,11,13,02,06,3.20
2007,11,13,02,07,6.40
2007,11,13,02,08,1.60
2007,11,13,02,09,0.00
2007,11,13,02,10,0.00
2007,11,13,02,11,0.00
2007,11,13,02,12,0.00
2007,11,13,02,13,4.80
2007,11,13,02,14,9.60
2007,11,13,02,15,9.60
2007,11,13,02,16,6.40
2007,11,13,02,17,0.00
2007,11,13,02,18,6.40
2007,11,13,02,19,8.10
2007,11,13,02,20,6.40
2007,11,13,02,21,8.10
2007,11,13,02,22,8.10
2007,11,13,02,23,6.40
2007,11,13,02,24,6.40
2007,11,13,02,25,6.40
2007,11,13,02,26,8.10
2007,11,13,02,27,3.20
2007,11,13,02,28,9.60
2007,11,13,02,29,3.20
2007,11,13,02,30,8.10
2007,11,13,02,31,6.40
2007,11,13,02,32,3.20
2007,11,13,02,33,3.20
2007,11,13,02,34,3.20
2007,11,13,02,35,4.80
2007,11,13,02,36,6.40
2007,11,13,02,37,4.80
2007,11,13,02,38,4.80
2007,11,13,02,39,3.20
2007,11,13,02,40,1.60
2007,11,13,02,41,3.20
2007,11,13,02,42,3.20
2007,11,13,02,43,3.20
2007,11,13,02,44,3.20
2007,11,13,02,45,8.10
2007,11,13,02,46,4.80
2007,11,13,02,47,6.40
2007,11,13,02,48,8.10
2007,11,13,02,49,6.40
2007,11,13,02,50,6.40
2007,11,13,02,51,4.80
2007,11,13,02,52,6.40
2007,11,13,02,53,1.60
2007,11,13,02,54,0.00
2007,11,13,02,55,1.60
2007,11,13,02,56,6.40
2007,11,13,02,57,8.10
2007,11,13,02,58,6.40
2007,11,13,02,59,3.20
2007,11,13,03,00,6.40
2007,11,13,03,01,4.80
2007,11,13,03,02,6.40
2007,11,13,03,03,3.20
2007,11,13,03,04,1.60
2007,11,13,03,05,3.20
2007,11,13,03,06,1.60
2007,11,13,03,07,0.00
2007,11,13,03,08,0.00
2007,11,13,03,09,1.60
2007,11,13,03,10,1.60
2007,11,13,03,11,0.00
2007,11,13,03,12,1.60
2007,11,13,03,13,1.60
2007,11,13,03,14,3.20
2007,11,13,03,15,3.20
2007,11,13,03,16,6.40
2007,11,13,03,17,4.80
2007,11,13,03,18,6.40
2007,11,13,03,19,4.80
2007,11,13,03,20,6.40
2007,11,13,03,21,1.60
2007,11,13,03,22,8.10
2007,11,13,03,23,8.10
2007,11,13,03,24,6.40
2007,11,13,03,25,8.10
2007,11,13,03,26,4.80
2007,11,13,03,27,8.10
2007,11,13,03,28,8.10
2007,11,13,03,29,8.10
2007,11,13,03,30,6.40
2007,11,13,03,31,6.40
2007,11,13,03,32,6.40
2007,11,13,03,33,6.40
2007,11,13,03,34,8.10
2007,11,13,03,35,1.60
2007,11,13,03,36,8.10
2007,11,13,03,37,8.10
2007,11,13,03,38,1.60
2007,11,13,03,39,1.60
2007,11,13,03,40,1.60
2007,11,13,03,41,6.40
2007,11,13,03,42,6.40
2007,11,13,03,43,4.80
2007,11,13,03,44,6.40
2007,11,13,03,45,8.10
2007,11,13,03,46,9.60
2007,11,13,03,47,8.10
2007,11,13,03,48,8.10
2007,11,13,03,49,6.40
2007,11,13,03,50,9.60
2007,11,13,03,51,6.40
2007,11,13,03,52,6.40
2007,11,13,03,53,8.10
2007,11,13,03,54,9.60
2007,11,13,03,55,3.20
2007,11,13,03,56,6.40
2007,11,13,03,57,3.20
2007,11,13,03,58,3.20
2007,11,13,03,59,8.10
2007,11,13,04,00,3.20
2007,11,13,04,01,1.60
2007,11,13,04,02,1.60
2007,11,13,04,03,3.20
2007,11,13,04,04,17.70
2007,11,13,04,05,17.70
2007,11,13,04,06,8.10
2007,11,13,04,07,8.10
2007,11,13,04,08,8.10
2007,11,13,04,09,4.80
2007,11,13,04,10,8.10
2007,11,13,04,11,6.40
2007,11,13,04,12,6.40
2007,11,13,04,13,3.20
2007,11,13,04,14,8.10
2007,11,13,04,15,6.40
2007,11,13,04,16,6.40
2007,11,13,04,17,8.10
2007,11,13,04,18,3.20
2007,11,13,04,19,11.30
2007,11,13,04,20,1.60
2007,11,13,04,21,1.60
2007,11,13,04,22,1.60
2007,11,13,04,23,3.20
2007,11,13,04,24,3.20
2007,11,13,04,25,3.20
2007,11,13,04,26,1.60
2007,11,13,04,27,0.00
2007,11,13,04,28,1.60
2007,11,13,04,29,0.00
2007,11,13,04,30,3.20
2007,11,13,04,31,1.60
2007,11,13,04,32,1.60
2007,11,13,04,33,1.60
2007,11,13,04,34,1.60
2007,11,13,04,35,3.20
2007,11,13,04,36,3.20
2007,11,13,04,37,6.40
2007,11,13,04,38,1.60
2007,11,13,04,39,1.60
2007,11,13,04,40,0.00
2007,11,13,04,41,4.80
2007,11,13,04,42,6.40
2007,11,13,04,43,3.20
2007,11,13,04,44,0.00
2007,11,13,04,45,0.00
2007,11,13,04,46,0.00
2007,11,13,04,47,1.60
2007,11,13,04,48,3.20
2007,11,13,04,49,3.20
2007,11,13,04,50,6.40
2007,11,13,04,51,8.10
2007,11,13,04,52,6.40
2007,11,13,04,53,3.20
2007,11,13,04,54,3.20
2007,11,13,04,55,3.20
2007,11,13,04,56,4.80
2007,11,13,04,57,3.20
2007,11,13,04,58,6.40
2007,11,13,04,59,3.20
2007,11,13,05,00,4.80
2007,11,13,05,01,6.40
2007,11,13,05,02,6.40
2007,11,13,05,03,6.40
2007,11,13,05,04,3.20
2007,11,13,05,05,3.20
2007,11,13,05,06,6.40
2007,11,13,05,07,4.80
2007,11,13,05,08,3.20
2007,11,13,05,09,3.20
2007,11,13,05,10,6.40
2007,11,13,05,11,6.40
2007,11,13,05,12,0.00
2007,11,13,05,13,1.60
2007,11,13,05,14,1.60
2007,11,13,05,15,1.60
2007,11,13,05,16,3.20
2007,11,13,05,17,6.40
2007,11,13,05,18,3.20
2007,11,13,05,19,3.20
2007,11,13,05,20,6.40
2007,11,13,05,21,8.10
2007,11,13,05,22,8.10
2007,11,13,05,23,6.40
2007,11,13,05,24,6.40
2007,11,13,05,25,3.20
2007,11,13,05,26,1.60
2007,11,13,05,27,0.00
2007,11,13,05,28,6.40
2007,11,13,05,29,4.80
2007,11,13,05,30,6.40
2007,11,13,05,31,8.10
2007,11,13,05,32,8.10
2007,11,13,05,33,8.10
2007,11,13,05,34,9.60
2007,11,13,05,35,9.60
2007,11,13,05,36,8.10
2007,11,13,05,37,6.40
2007,11,13,05,38,3.20
2007,11,13,05,39,8.10
2007,11,13,05,40,8.10
2007,11,13,05,41,11.30
2007,11,13,05,42,3.20
2007,11,13,05,43,3.20
2007,11,13,05,44,1.60
2007,11,13,05,45,0.00
2007,11,13,05,46,1.60
2007,11,13,05,47,3.20
2007,11,13,05,48,3.20
2007,11,13,05,49,6.40
2007,11,13,05,50,6.40
2007,11,13,05,51,6.40
2007,11,13,05,52,6.40
2007,11,13,05,53,8.10
2007,11,13,05,54,6.40
2007,11,13,05,55,8.10
2007,11,13,05,56,1.60
2007,11,13,05,57,3.20
2007,11,13,05,58,3.20
2007,11,13,05,59,6.40
2007,11,13,06,00,6.40
2007,11,13,06,01,6.40
2007,11,13,06,02,6.40
2007,11,13,06,03,6.40
2007,11,13,06,04,6.40
2007,11,13,06,05,8.10
2007,11,13,06,06,8.10
2007,11,13,06,07,8.10
2007,11,13,06,08,8.10
2007,11,13,06,09,8.10
2007,11,13,06,10,9.60
2007,11,13,06,11,12.90
2007,11,13,06,12,12.90
2007,11,13,06,13,19.30
2007,11,13,06,14,11.30
2007,11,13,06,15,19.30
2007,11,13,06,16,14.50
2007,11,13,06,17,9.60
2007,11,13,06,18,3.20
2007,11,13,06,19,14.50
2007,11,13,06,20,9.60
2007,11,13,06,21,4.80
2007,11,13,06,22,11.30
2007,11,13,06,23,6.40
2007,11,13,06,24,6.40
2007,11,13,06,25,16.10
2007,11,13,06,26,8.10
2007,11,13,06,27,8.10
2007,11,13,06,28,3.20
2007,11,13,06,29,16.10
2007,11,13,06,30,6.40
2007,11,13,06,31,11.30
2007,11,13,06,32,14.50
2007,11,13,06,33,16.10
2007,11,13,06,34,6.40
2007,11,13,06,35,12.90
2007,11,13,06,36,11.30
2007,11,13,06,37,12.90
2007,11,13,06,38,12.90
2007,11,13,06,39,4.80
2007,11,13,06,40,4.80
2007,11,13,06,41,14.50
2007,11,13,06,42,17.70
2007,11,13,06,43,11.30
2007,11,13,06,44,14.50
2007,11,13,06,45,14.50
2007,11,13,06,46,12.90
2007,11,13,06,47,9.60
2007,11,13,06,48,9.60
2007,11,13,06,49,8.10
2007,11,13,06,50,8.10
2007,11,13,06,51,11.30
2007,11,13,06,52,9.60
2007,11,13,06,53,3.20
2007,11,13,06,54,8.10
2007,11,13,06,55,4.80
2007,11,13,06,56,11.30
2007,11,13,06,57,8.10
2007,11,13,06,58,6.40
2007,11,13,06,59,8.10
2007,11,13,07,00,14.50
2007,11,13,07,01,16.10
2007,11,13,07,02,11.30
2007,11,13,07,03,9.60
2007,11,13,07,04,8.10
2007,11,13,07,05,8.10
2007,11,13,07,06,9.60
2007,11,13,07,07,6.40
2007,11,13,07,08,11.30
2007,11,13,07,09,9.60
2007,11,13,07,10,9.60
2007,11,13,07,11,6.40
2007,11,13,07,12,3.20
2007,11,13,07,13,1.60
2007,11,13,07,14,3.20
2007,11,13,07,15,3.20
2007,11,13,07,16,9.60
2007,11,13,07,17,1.60
2007,11,13,07,18,1.60
2007,11,13,07,19,6.40
2007,11,13,07,20,8.10
2007,11,13,07,21,6.40
2007,11,13,07,22,1.60
2007,11,13,07,23,3.20
2007,11,13,07,24,8.10
2007,11,13,07,25,6.40
2007,11,13,07,26,6.40
2007,11,13,07,27,3.20
2007,11,13,07,28,8.10
2007,11,13,07,29,6.40
2007,11,13,07,30,1.60
2007,11,13,07,31,1.60
2007,11,13,07,32,0.00
2007,11,13,07,33,0.00
2007,11,13,07,34,1.60
2007,11,13,07,35,1.60
2007,11,13,07,36,1.60
2007,11,13,07,37,0.00
2007,11,13,07,38,1.60
2007,11,13,07,39,3.20
2007,11,13,07,40,3.20
2007,11,13,07,41,1.60
2007,11,13,07,42,1.60
2007,11,13,07,43,0.00
2007,11,13,07,44,4.80
2007,11,13,07,45,4.80
2007,11,13,07,46,3.20
2007,11,13,07,47,1.60
2007,11,13,07,48,3.20
2007,11,13,07,49,0.00
2007,11,13,07,50,1.60
2007,11,13,07,51,3.20
2007,11,13,07,52,1.60
2007,11,13,07,53,3.20
2007,11,13,07,54,3.20
2007,11,13,07,55,1.60
2007,11,13,07,56,1.60
2007,11,13,07,57,1.60
2007,11,13,07,58,6.40
2007,11,13,07,59,9.60
2007,11,13,08,00,9.60
2007,11,13,08,01,8.10
2007,11,13,08,02,4.80
2007,11,13,08,03,8.10
2007,11,13,08,04,8.10
2007,11,13,08,05,3.20
2007,11,13,08,06,0.00
2007,11,13,08,07,1.60
2007,11,13,08,08,3.20
2007,11,13,08,09,3.20
2007,11,13,08,10,4.80
2007,11,13,08,11,3.20
2007,11,13,08,12,1.60
2007,11,13,08,13,6.40
2007,11,13,08,14,3.20
2007,11,13,08,15,6.40
2007,11,13,08,16,6.40
2007,11,13,08,17,8.10
2007,11,13,08,18,9.60
2007,11,13,08,19,9.60
2007,11,13,08,20,9.60
2007,11,13,08,21,3.20
2007,11,13,08,22,0.00
2007,11,13,08,23,1.60
2007,11,13,08,24,9.60
2007,11,13,08,25,11.30
2007,11,13,08,26,8.10
2007,11,13,08,27,8.10
2007,11,13,08,28,8.10
2007,11,13,08,29,6.40
2007,11,13,08,30,8.10
2007,11,13,08,31,8.10
2007,11,13,08,32,8.10
2007,11,13,08,33,4.80
2007,11,13,08,34,3.20
2007,11,13,08,35,11.30
2007,11,13,08,36,11.30
2007,11,13,08,37,11.30
2007,11,13,08,38,12.90
2007,11,13,08,39,9.60
2007,11,13,08,40,16.10
2007,11,13,08,41,19.30
2007,11,13,08,42,9.60
2007,11,13,08,43,14.50
2007,11,13,08,44,14.50
2007,11,13,08,45,16.10
2007,11,13,08,46,24.20
2007,11,13,08,47,16.10
2007,11,13,08,48,11.30
2007,11,13,08,49,14.50
2007,11,13,08,50,14.50
2007,11,13,08,51,6.40
2007,11,13,08,52,16.10
2007,11,13,08,53,12.90
2007,11,13,08,54,12.90
2007,11,13,08,55,8.10
2007,11,13,08,56,8.10
2007,11,13,08,57,16.10
2007,11,13,08,58,11.30
2007,11,13,08,59,9.60
2007,11,13,09,00,8.10
2007,11,13,09,01,6.40
2007,11,13,09,02,14.50
2007,11,13,09,03,17.70
2007,11,13,09,04,14.50
2007,11,13,09,05,12.90
2007,11,13,09,06,11.30
2007,11,13,09,07,11.30
2007,11,13,09,08,8.10
2007,11,13,09,09,9.60
2007,11,13,09,10,14.50
2007,11,13,09,11,9.60
2007,11,13,09,12,6.40
2007,11,13,09,13,3.20
2007,11,13,09,14,9.60
2007,11,13,09,15,8.10
2007,11,13,09,16,6.40
2007,11,13,09,17,11.30
2007,11,13,09,18,4.80
2007,11,13,09,19,6.40
2007,11,13,09,20,8.10
2007,11,13,09,21,8.10
2007,11,13,09,22,11.30
2007,11,13,09,23,8.10
2007,11,13,09,24,8.10
2007,11,13,09,25,9.60
2007,11,13,09,26,8.10
2007,11,13,09,27,8.10
2007,11,13,09,28,12.90
2007,11,13,09,29,11.30
2007,11,13,09,30,12.90
2007,11,13,09,31,8.10
2007,11,13,09,32,3.20
2007,11,13,09,33,3.20
2007,11,13,09,34,3.20
2007,11,13,09,35,8.10
2007,11,13,09,36,8.10
2007,11,13,09,37,3.20
2007,11,13,09,38,1.60
2007,11,13,09,39,3.20
2007,11,13,09,40,11.30
2007,11,13,09,41,8.10
2007,11,13,09,42,9.60
2007,11,13,09,43,8.10
2007,11,13,09,44,3.20
2007,11,13,09,45,8.10
2007,11,13,09,46,9.60
2007,11,13,09,47,8.10
2007,11,13,09,48,6.40
2007,11,13,09,49,3.20
2007,11,13,09,50,8.10
2007,11,13,09,51,8.10
2007,11,13,09,52,3.20
2007,11,13,09,53,0.00
2007,11,13,09,54,6.40
2007,11,13,09,55,6.40
2007,11,13,09,56,1.60
2007,11,13,09,57,1.60
2007,11,13,09,58,0.00
2007,11,13,09,59,3.20
2007,11,13,10,00,3.20
2007,11,13,10,01,6.40
2007,11,13,10,02,8.10
2007,11,13,10,03,8.10
2007,11,13,10,04,3.20
2007,11,13,10,05,1.60
2007,11,13,10,06,0.00
2007,11,13,10,07,1.60
2007,11,13,10,08,3.20
2007,11,13,10,09,0.00
2007,11,13,10,10,1.60
2007,11,13,10,11,3.20
2007,11,13,10,12,3.20
2007,11,13,10,13,3.20
2007,11,13,10,14,1.60
2007,11,13,10,15,1.60
2007,11,13,10,16,1.60
2007,11,13,10,17,1.60
2007,11,13,10,18,6.40
2007,11,13,10,19,9.60
2007,11,13,10,20,8.10
2007,11,13,10,21,6.40
2007,11,13,10,22,8.10
2007,11,13,10,23,8.10
2007,11,13,10,24,8.10
2007,11,13,10,25,9.60
2007,11,13,10,26,9.60
2007,11,13,10,27,8.10
2007,11,13,10,28,9.60
2007,11,13,10,29,9.60
2007,11,13,10,30,11.30
2007,11,13,10,31,11.30
2007,11,13,10,32,11.30
2007,11,13,10,33,9.60
2007,11,13,10,34,11.30
2007,11,13,10,35,9.60
2007,11,13,10,36,8.10
2007,11,13,10,37,9.60
2007,11,13,10,38,8.10
2007,11,13,10,39,9.60
2007,11,13,10,40,8.10
2007,11,13,10,41,4.80
2007,11,13,10,42,3.20
2007,11,13,10,43,6.40
2007,11,13,10,44,6.40
2007,11,13,10,45,3.20
2007,11,13,10,46,3.20
2007,11,13,10,47,3.20
2007,11,13,10,48,3.20
2007,11,13,10,49,3.20
2007,11,13,10,50,3.20
2007,11,13,10,51,1.60
2007,11,13,10,52,3.20
2007,11,13,10,53,4.80
2007,11,13,10,54,1.60
2007,11,13,10,55,4.80
2007,11,13,10,56,9.60
2007,11,13,10,57,9.60
2007,11,13,10,58,6.40
2007,11,13,10,59,3.20
2007,11,13,11,00,3.20
2007,11,13,11,01,3.20
2007,11,13,11,02,3.20
2007,11,13,11,03,3.20
2007,11,13,11,04,1.60
2007,11,13,11,05,3.20
2007,11,13,11,06,6.40
2007,11,13,11,07,3.20
2007,11,13,11,08,4.80
2007,11,13,11,09,9.60
2007,11,13,11,10,9.60
2007,11,13,11,11,9.60
2007,11,13,11,12,9.60
2007,11,13,11,13,6.40
2007,11,13,11,14,3.20
2007,11,13,11,15,8.10
2007,11,13,11,16,9.60
2007,11,13,11,17,9.60
2007,11,13,11,18,4.80
2007,11,13,11,19,6.40
2007,11,13,11,20,6.40
2007,11,13,11,21,3.20
2007,11,13,11,22,3.20
2007,11,13,11,23,1.60
2007,11,13,11,24,1.60
2007,11,13,11,25,3.20
2007,11,13,11,26,6.40
2007,11,13,11,27,6.40
2007,11,13,11,28,3.20
2007,11,13,11,29,3.20
2007,11,13,11,30,6.40
2007,11,13,11,31,6.40
2007,11,13,11,32,1.60
2007,11,13,11,33,3.20
2007,11,13,11,34,3.20
2007,11,13,11,35,8.10
2007,11,13,11,36,3.20
2007,11,13,11,37,6.40
2007,11,13,11,38,6.40
2007,11,13,11,39,3.20
2007,11,13,11,40,6.40
2007,11,13,11,41,4.80
2007,11,13,11,42,6.40
2007,11,13,11,43,6.40
2007,11,13,11,44,8.10
2007,11,13,11,45,8.10
2007,11,13,11,46,11.30
2007,11,13,11,47,8.10
2007,11,13,11,48,8.10
2007,11,13,11,49,9.60
2007,11,13,11,50,8.10
2007,11,13,11,51,9.60
2007,11,13,11,52,8.10
2007,11,13,11,53,8.10
2007,11,13,11,54,3.20
2007,11,13,11,55,6.40
2007,11,13,11,56,6.40
2007,11,13,11,57,4.80
2007,11,13,11,58,6.40
2007,11,13,11,59,6.40
2007,11,13,12,00,6.40
2007,11,13,12,01,4.80
2007,11,13,12,02,3.20
2007,11,13,12,03,6.40
2007,11,13,12,04,6.40
2007,11,13,12,05,6.40
2007,11,13,12,06,6.40
2007,11,13,12,07,1.60
2007,11,13,12,08,6.40
2007,11,13,12,09,8.10
2007,11,13,12,10,8.10
2007,11,13,12,11,9.60
2007,11,13,12,12,6.40
2007,11,13,12,13,1.60
2007,11,13,12,14,6.40
2007,11,13,12,15,4.80
2007,11,13,12,16,3.20
2007,11,13,12,17,3.20
2007,11,13,12,18,3.20
2007,11,13,12,19,3.20
2007,11,13,12,20,9.60
2007,11,13,12,21,6.40
2007,11,13,12,22,4.80
2007,11,13,12,23,6.40
2007,11,13,12,24,8.10
2007,11,13,12,25,9.60
2007,11,13,12,26,9.60
2007,11,13,12,27,8.10
2007,11,13,12,28,8.10
2007,11,13,12,29,8.10
2007,11,13,12,30,8.10
2007,11,13,12,31,8.10
2007,11,13,12,32,1.60
2007,11,13,12,33,3.20
2007,11,13,12,34,1.60
2007,11,13,12,35,3.20
2007,11,13,12,36,6.40
2007,11,13,12,37,6.40
2007,11,13,12,38,3.20
2007,11,13,12,39,8.10
2007,11,13,12,40,6.40
2007,11,13,12,41,8.10
2007,11,13,12,42,6.40
2007,11,13,12,43,6.40
2007,11,13,12,44,6.40
2007,11,13,12,45,6.40
2007,11,13,12,46,3.20
2007,11,13,12,47,1.60
2007,11,13,12,48,3.20
2007,11,13,12,49,1.60
2007,11,13,12,50,0.00
2007,11,13,12,51,0.00
2007,11,13,12,52,1.60
2007,11,13,12,53,6.40
2007,11,13,12,54,4.80
2007,11,13,12,55,8.10
2007,11,13,12,56,8.10
2007,11,13,12,57,6.40
2007,11,13,12,58,8.10
2007,11,13,12,59,6.40
2007,11,13,13,00,6.40
2007,11,13,13,01,8.10
2007,11,13,13,02,3.20
2007,11,13,13,03,6.40
2007,11,13,13,04,6.40
2007,11,13,13,05,3.20
2007,11,13,13,06,6.40
2007,11,13,13,07,3.20
2007,11,13,13,08,8.10
2007,11,13,13,09,8.10
2007,11,13,13,10,8.10
2007,11,13,13,11,8.10
2007,11,13,13,12,9.60
2007,11,13,13,13,8.10
2007,11,13,13,14,8.10
2007,11,13,13,15,6.40
2007,11,13,13,16,6.40
2007,11,13,13,17,4.80
2007,11,13,13,18,4.80
2007,11,13,13,19,9.60
2007,11,13,13,20,8.10
2007,11,13,13,21,6.40
2007,11,13,13,22,1.60
2007,11,13,13,23,8.10
2007,11,13,13,24,8.10
2007,11,13,13,25,8.10
2007,11,13,13,26,6.40
2007,11,13,13,27,8.10
2007,11,13,13,28,6.40
2007,11,13,13,29,9.60
2007,11,13,13,30,8.10
2007,11,13,13,31,6.40
2007,11,13,13,32,6.40
2007,11,13,13,33,6.40
2007,11,13,13,34,8.10
2007,11,13,13,35,8.10
2007,11,13,13,36,8.10
2007,11,13,13,37,1.60
2007,11,13,13,38,3.20
2007,11,13,13,39,3.20
2007,11,13,13,40,8.10
2007,11,13,13,41,8.10
2007,11,13,13,42,8.10
2007,11,13,13,43,6.40
2007,11,13,13,44,6.40
2007,11,13,13,45,6.40
2007,11,13,13,46,8.10
2007,11,13,13,47,3.20
2007,11,13,13,48,8.10
2007,11,13,13,49,9.60
2007,11,13,13,50,6.40
2007,11,13,13,51,8.10
2007,11,13,13,52,9.60
2007,11,13,13,53,11.30
2007,11,13,13,54,11.30
2007,11,13,13,55,8.10
2007,11,13,13,56,11.30
2007,11,13,13,57,12.90
2007,11,13,13,58,8.10
2007,11,13,13,59,8.10
2007,11,13,14,00,6.40
2007,11,13,14,01,8.10
2007,11,13,14,02,6.40
2007,11,13,14,03,9.60
2007,11,13,14,04,9.60
2007,11,13,14,05,9.60
2007,11,13,14,06,9.60
2007,11,13,14,07,11.30
2007,11,13,14,08,11.30
2007,11,13,14,09,9.60
2007,11,13,14,10,9.60
2007,11,13,14,11,8.10
2007,11,13,14,12,9.60
2007,11,13,14,13,6.40
2007,11,13,14,14,8.10
2007,11,13,14,15,9.60
2007,11,13,14,16,11.30
2007,11,13,14,17,12.90
2007,11,13,14,18,9.60
2007,11,13,14,19,9.60
2007,11,13,14,20,6.40
2007,11,13,14,21,6.40
2007,11,13,14,22,8.10
2007,11,13,14,23,3.20
2007,11,13,14,24,8.10
2007,11,13,14,25,3.20
2007,11,13,14,26,1.60
2007,11,13,14,27,1.60
2007,11,13,14,28,3.20
2007,11,13,14,29,3.20
2007,11,13,14,30,8.10
2007,11,13,14,31,6.40
2007,11,13,14,32,8.10
2007,11,13,14,33,6.40
2007,11,13,14,34,1.60
2007,11,13,14,35,1.60
2007,11,13,14,36,0.00
2007,11,13,14,37,1.60
2007,11,13,14,38,1.60
2007,11,13,14,39,3.20
2007,11,13,14,40,6.40
2007,11,13,14,41,3.20
2007,11,13,14,42,3.20
2007,11,13,14,43,1.60
2007,11,13,14,44,0.00
2007,11,13,14,45,0.00
2007,11,13,14,46,0.00
2007,11,13,14,47,1.60
2007,11,13,14,48,6.40
2007,11,13,14,49,4.80
2007,11,13,14,50,8.10
2007,11,13,14,51,3.20
2007,11,13,14,52,4.80
2007,11,13,14,53,4.80
2007,11,13,14,54,6.40
2007,11,13,14,55,6.40
2007,11,13,14,56,4.80
2007,11,13,14,57,3.20
2007,11,13,14,58,3.20
2007,11,13,14,59,3.20
2007,11,13,15,00,3.20
2007,11,13,15,01,1.60
2007,11,13,15,02,0.00
2007,11,13,15,03,0.00
2007,11,13,15,04,0.00
2007,11,13,15,05,0.00
2007,11,13,15,06,0.00
2007,11,13,15,07,0.00
2007,11,13,15,08,0.00
2007,11,13,15,09,0.00
2007,11,13,15,10,0.00
2007,11,13,15,11,0.00
2007,11,13,15,12,0.00
2007,11,13,15,13,1.60
2007,11,13,15,14,3.20
2007,11,13,15,15,1.60
2007,11,13,15,16,3.20
2007,11,13,15,17,3.20
2007,11,13,15,18,3.20
2007,11,13,15,19,3.20
2007,11,13,15,20,3.20
2007,11,13,15,21,3.20
2007,11,13,15,22,1.60
2007,11,13,15,23,1.60
2007,11,13,15,24,1.60
2007,11,13,15,25,1.60
2007,11,13,15,26,0.00
2007,11,13,15,27,0.00
2007,11,13,15,28,0.00
2007,11,13,15,29,0.00
2007,11,13,15,30,0.00
2007,11,13,15,31,0.00
2007,11,13,15,32,0.00
2007,11,13,15,33,1.60
2007,11,13,15,34,1.60
2007,11,13,15,35,1.60
2007,11,13,15,36,0.00
2007,11,13,15,37,0.00
2007,11,13,15,38,0.00
2007,11,13,15,39,0.00
2007,11,13,15,40,0.00
2007,11,13,15,41,0.00
2007,11,13,15,42,0.00
2007,11,13,15,43,0.00
2007,11,13,15,44,0.00
2007,11,13,15,45,1.60
2007,11,13,15,46,1.60
2007,11,13,15,47,0.00
2007,11,13,15,48,0.00
2007,11,13,15,49,0.00
2007,11,13,15,50,0.00
2007,11,13,15,51,3.20
2007,11,13,15,52,1.60
2007,11,13,15,53,1.60
2007,11,13,15,54,0.00
2007,11,13,15,55,0.00
2007,11,13,15,56,3.20
2007,11,13,15,57,3.20
2007,11,13,15,58,3.20
2007,11,13,15,59,3.20
2007,11,13,16,00,3.20
2007,11,13,16,01,1.60
2007,11,13,16,02,1.60
2007,11,13,16,03,0.00
2007,11,13,16,04,0.00
2007,11,13,16,05,0.00
2007,11,13,16,06,0.00
2007,11,13,16,07,0.00
2007,11,13,16,08,1.60
2007,11,13,16,09,3.20
2007,11,13,16,10,0.00
2007,11,13,16,11,0.00
2007,11,13,16,12,0.00
2007,11,13,16,13,0.00
2007,11,13,16,14,0.00
2007,11,13,16,15,0.00
2007,11,13,16,16,0.00
2007,11,13,16,17,0.00
2007,11,13,16,18,6.40
2007,11,13,16,19,6.40
2007,11,13,16,20,8.10
2007,11,13,16,21,6.40
2007,11,13,16,22,6.40
2007,11,13,16,23,6.40
2007,11,13,16,24,6.40
2007,11,13,16,25,4.80
2007,11,13,16,26,3.20
2007,11,13,16,27,6.40
2007,11,13,16,28,6.40
2007,11,13,16,29,4.80
2007,11,13,16,30,4.80
2007,11,13,16,31,3.20
2007,11,13,16,32,3.20
2007,11,13,16,33,3.20
2007,11,13,16,34,3.20
2007,11,13,16,35,3.20
2007,11,13,16,36,3.20
2007,11,13,16,37,3.20
2007,11,13,16,38,3.20
2007,11,13,16,39,3.20
2007,11,13,16,40,3.20
2007,11,13,16,41,3.20
2007,11,13,16,42,3.20
2007,11,13,16,43,3.20
2007,11,13,16,44,3.20
2007,11,13,16,45,4.80
2007,11,13,16,46,6.40
2007,11,13,16,47,4.80
2007,11,13,16,48,4.80
2007,11,13,16,49,4.80
2007,11,13,16,50,3.20
2007,11,13,16,51,3.20
2007,11,13,16,52,3.20
2007,11,13,16,53,6.40
2007,11,13,16,54,4.80
2007,11,13,16,55,4.80
2007,11,13,16,56,6.40
2007,11,13,16,57,6.40
2007,11,13,16,58,6.40
2007,11,13,16,59,6.40
2007,11,13,17,00,6.40
2007,11,13,17,01,8.10
2007,11,13,17,02,6.40
2007,11,13,17,03,6.40
2007,11,13,17,04,6.40
2007,11,13,17,05,4.80
2007,11,13,17,06,6.40
2007,11,13,17,07,6.40
2007,11,13,17,08,6.40
2007,11,13,17,09,6.40
2007,11,13,17,10,6.40
2007,11,13,17,11,6.40
2007,11,13,17,12,8.10
2007,11,13,17,13,6.40
2007,11,13,17,14,6.40
2007,11,13,17,15,6.40
2007,11,13,17,16,6.40
2007,11,13,17,17,6.40
2007,11,13,17,18,3.20
2007,11,13,17,19,6.40
2007,11,13,17,20,6.40
2007,11,13,17,21,4.80
2007,11,13,17,22,4.80
2007,11,13,17,23,6.40
2007,11,13,17,24,4.80
2007,11,13,17,25,6.40
2007,11,13,17,26,6.40
2007,11,13,17,27,6.40
2007,11,13,17,28,6.40
2007,11,13,17,29,6.40
2007,11,13,17,30,6.40
2007,11,13,17,31,6.40
2007,11,13,17,32,6.40
2007,11,13,17,33,6.40
2007,11,13,17,34,8.10
2007,11,13,17,35,6.40
2007,11,13,17,36,6.40
2007,11,13,17,37,8.10
2007,11,13,17,38,6.40
2007,11,13,17,39,6.40
2007,11,13,17,40,6.40
2007,11,13,17,41,6.40
2007,11,13,17,42,4.80
2007,11,13,17,43,6.40
2007,11,13,17,44,6.40
2007,11,13,17,45,6.40
2007,11,13,17,46,8.10
2007,11,13,17,47,6.40
2007,11,13,17,48,6.40
2007,11,13,17,49,6.40
2007,11,13,17,50,4.80
2007,11,13,17,51,6.40
2007,11,13,17,52,6.40
2007,11,13,17,53,6.40
2007,11,13,17,54,6.40
2007,11,13,17,55,6.40
2007,11,13,17,56,6.40
2007,11,13,17,57,4.80
2007,11,13,17,58,6.40
2007,11,13,17,59,6.40
2007,11,13,18,00,6.40
2007,11,13,18,01,6.40
2007,11,13,18,02,6.40